Data supplied by UK-AIR on 5/4/2008
All Data GMT hour ending 
Status: R =Ratified P=Provisional,P*=As supplied
,,London Sutton,,,,,,,,,,,,,,,,,,,,,,,
Date,time,"Nitric oxide",status,unit,"Nitrogen dioxide",status,unit,"Nitrogen oxides as nitrogen dioxide",status,unit,"Ozone",status,unit
 
01-01-2002,01:00,170,R,ugm-3,46,R,ugm-3,306,R,ugm-3,2,R,ugm-3
01-01-2002,02:00,206,R,ugm-3,50,R,ugm-3,365,R,ugm-3,2,R,ugm-3
01-01-2002,03:00,143,R,ugm-3,44,R,ugm-3,262,R,ugm-3,0,R,ugm-3
01-01-2002,04:00,118,R,ugm-3,44,R,ugm-3,223,R,ugm-3,0,R,ugm-3
01-01-2002,05:00,99,R,ugm-3,44,R,ugm-3,195,R,ugm-3,0,R,ugm-3
01-01-2002,06:00,70,R,ugm-3,44,R,ugm-3,151,R,ugm-3,0,R,ugm-3
01-01-2002,07:00,90,R,ugm-3,48,R,ugm-3,185,R,ugm-3,0,R,ugm-3
01-01-2002,08:00,126,R,ugm-3,55,R,ugm-3,248,R,ugm-3,0,R,ugm-3
01-01-2002,09:00,115,R,ugm-3,55,R,ugm-3,231,R,ugm-3,0,R,ugm-3
01-01-2002,10:00,123,R,ugm-3,57,R,ugm-3,244,R,ugm-3,0,R,ugm-3
01-01-2002,11:00,150,R,ugm-3,86,R,ugm-3,315,R,ugm-3,0,R,ugm-3
01-01-2002,12:00,123,R,ugm-3,94,R,ugm-3,281,R,ugm-3,2,R,ugm-3
01-01-2002,13:00,59,R,ugm-3,74,R,ugm-3,164,R,ugm-3,6,R,ugm-3
01-01-2002,14:00,11,R,ugm-3,40,R,ugm-3,57,R,ugm-3,24,R,ugm-3
01-01-2002,15:00,13,R,ugm-3,42,R,ugm-3,61,R,ugm-3,16,R,ugm-3
01-01-2002,16:00,39,R,ugm-3,55,R,ugm-3,115,R,ugm-3,4,R,ugm-3
01-01-2002,17:00,316,R,ugm-3,71,R,ugm-3,554,R,ugm-3,2,R,ugm-3
01-01-2002,18:00,415,R,ugm-3,76,R,ugm-3,711,R,ugm-3,2,R,ugm-3
01-01-2002,19:00,448,R,ugm-3,78,R,ugm-3,762,R,ugm-3,0,R,ugm-3
01-01-2002,20:00,363,R,ugm-3,76,R,ugm-3,630,R,ugm-3,0,R,ugm-3
01-01-2002,21:00,330,R,ugm-3,80,R,ugm-3,584,R,ugm-3,2,R,ugm-3
01-01-2002,22:00,396,R,ugm-3,84,R,ugm-3,690,R,ugm-3,0,R,ugm-3
01-01-2002,23:00,336,R,ugm-3,78,R,ugm-3,592,R,ugm-3,0,R,ugm-3
01-01-2002,24:00,231,R,ugm-3,71,R,ugm-3,424,R,ugm-3,0,R,ugm-3
02-01-2002,01:00,234,R,ugm-3,67,R,ugm-3,424,R,ugm-3,0,R,ugm-3
02-01-2002,02:00,234,R,ugm-3,59,R,ugm-3,416,R,ugm-3,0,R,ugm-3
02-01-2002,03:00,149,R,ugm-3,46,R,ugm-3,273,R,ugm-3,0,R,ugm-3
02-01-2002,04:00,84,R,ugm-3,44,R,ugm-3,172,R,ugm-3,0,R,ugm-3
02-01-2002,05:00,80,R,ugm-3,38,R,ugm-3,160,R,ugm-3,0,R,ugm-3
02-01-2002,06:00,101,R,ugm-3,46,R,ugm-3,201,R,ugm-3,0,R,ugm-3
02-01-2002,07:00,211,R,ugm-3,59,R,ugm-3,382,R,ugm-3,0,R,ugm-3
02-01-2002,08:00,340,R,ugm-3,84,R,ugm-3,604,R,ugm-3,0,R,ugm-3
02-01-2002,09:00,340,R,ugm-3,92,R,ugm-3,611,R,ugm-3,0,R,ugm-3
02-01-2002,10:00,176,R,ugm-3,82,R,ugm-3,351,R,ugm-3,0,R,ugm-3
02-01-2002,11:00,73,R,ugm-3,61,R,ugm-3,172,R,ugm-3,2,R,ugm-3
02-01-2002,12:00,16,R,ugm-3,34,R,ugm-3,59,R,ugm-3,22,R,ugm-3
02-01-2002,13:00,14,R,ugm-3,31,R,ugm-3,52,R,ugm-3,28,R,ugm-3
02-01-2002,14:00,19,R,ugm-3,40,R,ugm-3,69,R,ugm-3,22,R,ugm-3
02-01-2002,15:00,20,R,ugm-3,46,R,ugm-3,76,R,ugm-3,16,R,ugm-3
02-01-2002,16:00,21,R,ugm-3,55,R,ugm-3,88,R,ugm-3,10,R,ugm-3
02-01-2002,17:00,35,R,ugm-3,67,R,ugm-3,120,R,ugm-3,4,R,ugm-3
02-01-2002,18:00,53,R,ugm-3,71,R,ugm-3,151,R,ugm-3,0,R,ugm-3
02-01-2002,19:00,73,R,ugm-3,73,R,ugm-3,183,R,ugm-3,0,R,ugm-3
02-01-2002,20:00,64,R,ugm-3,69,R,ugm-3,166,R,ugm-3,0,R,ugm-3
02-01-2002,21:00,15,R,ugm-3,59,R,ugm-3,82,R,ugm-3,8,R,ugm-3
02-01-2002,22:00,5,R,ugm-3,46,R,ugm-3,53,R,ugm-3,16,R,ugm-3
02-01-2002,23:00,6,R,ugm-3,46,R,ugm-3,55,R,ugm-3,18,R,ugm-3
02-01-2002,24:00,5,R,ugm-3,46,R,ugm-3,53,R,ugm-3,18,R,ugm-3
03-01-2002,01:00,3,R,ugm-3,38,R,ugm-3,42,R,ugm-3,26,R,ugm-3
03-01-2002,02:00,1,R,ugm-3,27,R,ugm-3,29,R,ugm-3,36,R,ugm-3
03-01-2002,03:00,1,R,ugm-3,25,R,ugm-3,27,R,ugm-3,34,R,ugm-3
03-01-2002,04:00,1,R,ugm-3,27,R,ugm-3,29,R,ugm-3,30,R,ugm-3
03-01-2002,05:00,1,R,ugm-3,25,R,ugm-3,27,R,ugm-3,34,R,ugm-3
03-01-2002,06:00,6,R,ugm-3,38,R,ugm-3,48,R,ugm-3,22,R,ugm-3
03-01-2002,07:00,30,R,ugm-3,59,R,ugm-3,105,R,ugm-3,4,R,ugm-3
03-01-2002,08:00,49,R,ugm-3,65,R,ugm-3,139,R,ugm-3,0,R,ugm-3
03-01-2002,09:00,64,R,ugm-3,65,R,ugm-3,162,R,ugm-3,0,R,ugm-3
03-01-2002,10:00,53,R,ugm-3,55,R,ugm-3,136,R,ugm-3,6,R,ugm-3
03-01-2002,11:00,23,R,ugm-3,40,R,ugm-3,74,R,ugm-3,18,R,ugm-3
03-01-2002,12:00,20,R,ugm-3,38,R,ugm-3,69,R,ugm-3,20,R,ugm-3
03-01-2002,13:00,19,R,ugm-3,38,R,ugm-3,67,R,ugm-3,20,R,ugm-3
03-01-2002,14:00,20,R,ugm-3,38,R,ugm-3,69,R,ugm-3,20,R,ugm-3
03-01-2002,15:00,19,R,ugm-3,42,R,ugm-3,71,R,ugm-3,16,R,ugm-3
03-01-2002,16:00,15,R,ugm-3,44,R,ugm-3,67,R,ugm-3,14,R,ugm-3
03-01-2002,17:00,25,R,ugm-3,59,R,ugm-3,97,R,ugm-3,4,R,ugm-3
03-01-2002,18:00,50,R,ugm-3,65,R,ugm-3,141,R,ugm-3,0,R,ugm-3
03-01-2002,19:00,30,R,ugm-3,59,R,ugm-3,105,R,ugm-3,0,R,ugm-3
03-01-2002,20:00,34,R,ugm-3,57,R,ugm-3,109,R,ugm-3,0,R,ugm-3
03-01-2002,21:00,19,R,ugm-3,55,R,ugm-3,84,R,ugm-3,4,R,ugm-3
03-01-2002,22:00,16,R,ugm-3,53,R,ugm-3,78,R,ugm-3,4,R,ugm-3
03-01-2002,23:00,14,R,ugm-3,52,R,ugm-3,73,R,ugm-3,6,R,ugm-3
03-01-2002,24:00,19,R,ugm-3,53,R,ugm-3,82,R,ugm-3,4,R,ugm-3
04-01-2002,01:00,41,R,ugm-3,55,R,ugm-3,118,R,ugm-3,0,R,ugm-3
04-01-2002,02:00,34,R,ugm-3,61,R,ugm-3,113,R,ugm-3,0,R,ugm-3
04-01-2002,03:00,39,R,ugm-3,59,R,ugm-3,118,R,ugm-3,0,R,ugm-3
04-01-2002,04:00,34,R,ugm-3,57,R,ugm-3,109,R,ugm-3,0,R,ugm-3
04-01-2002,05:00,41,R,ugm-3,55,R,ugm-3,118,R,ugm-3,0,R,ugm-3
04-01-2002,06:00,31,R,ugm-3,57,R,ugm-3,105,R,ugm-3,0,R,ugm-3
04-01-2002,07:00,76,R,ugm-3,57,R,ugm-3,174,R,ugm-3,0,R,ugm-3
04-01-2002,08:00,201,R,ugm-3,67,R,ugm-3,374,R,ugm-3,0,R,ugm-3
04-01-2002,09:00,178,R,ugm-3,57,R,ugm-3,329,R,ugm-3,2,R,ugm-3
04-01-2002,10:00,48,R,ugm-3,50,R,ugm-3,122,R,ugm-3,6,R,ugm-3
04-01-2002,11:00,24,R,ugm-3,34,R,ugm-3,71,R,ugm-3,14,R,ugm-3
04-01-2002,12:00,20,R,ugm-3,31,R,ugm-3,61,R,ugm-3,14,R,ugm-3
04-01-2002,13:00,20,R,ugm-3,32,R,ugm-3,63,R,ugm-3,14,R,ugm-3
04-01-2002,14:00,29,R,ugm-3,38,R,ugm-3,82,R,ugm-3,12,R,ugm-3
04-01-2002,15:00,23,R,ugm-3,38,R,ugm-3,73,R,ugm-3,10,R,ugm-3
04-01-2002,16:00,44,R,ugm-3,50,R,ugm-3,117,R,ugm-3,2,R,ugm-3
04-01-2002,17:00,46,R,ugm-3,52,R,ugm-3,122,R,ugm-3,0,R,ugm-3
04-01-2002,18:00,38,R,ugm-3,48,R,ugm-3,105,R,ugm-3,0,R,ugm-3
04-01-2002,19:00,65,R,ugm-3,50,R,ugm-3,149,R,ugm-3,0,R,ugm-3
04-01-2002,20:00,79,R,ugm-3,50,R,ugm-3,170,R,ugm-3,0,R,ugm-3
04-01-2002,21:00,123,R,ugm-3,50,R,ugm-3,237,R,ugm-3,0,R,ugm-3
04-01-2002,22:00,81,R,ugm-3,46,R,ugm-3,170,R,ugm-3,0,R,ugm-3
04-01-2002,23:00,30,R,ugm-3,44,R,ugm-3,90,R,ugm-3,0,R,ugm-3
04-01-2002,24:00,26,R,ugm-3,44,R,ugm-3,84,R,ugm-3,0,R,ugm-3
05-01-2002,01:00,25,R,ugm-3,40,R,ugm-3,78,R,ugm-3,0,R,ugm-3
05-01-2002,02:00,13,R,ugm-3,36,R,ugm-3,55,R,ugm-3,0,R,ugm-3
05-01-2002,03:00,18,R,ugm-3,38,R,ugm-3,65,R,ugm-3,0,R,ugm-3
05-01-2002,04:00,14,R,ugm-3,36,R,ugm-3,57,R,ugm-3,0,R,ugm-3
05-01-2002,05:00,14,R,ugm-3,34,R,ugm-3,55,R,ugm-3,0,R,ugm-3
05-01-2002,06:00,13,R,ugm-3,36,R,ugm-3,55,R,ugm-3,0,R,ugm-3
05-01-2002,07:00,20,R,ugm-3,40,R,ugm-3,71,R,ugm-3,0,R,ugm-3
05-01-2002,08:00,21,R,ugm-3,40,R,ugm-3,73,R,ugm-3,0,R,ugm-3
05-01-2002,09:00,33,R,ugm-3,36,R,ugm-3,86,R,ugm-3,0,R,ugm-3
05-01-2002,10:00,48,R,ugm-3,38,R,ugm-3,111,R,ugm-3,0,R,ugm-3
05-01-2002,11:00,60,R,ugm-3,40,R,ugm-3,132,R,ugm-3,0,R,ugm-3
05-01-2002,12:00,61,R,ugm-3,42,R,ugm-3,136,R,ugm-3,0,R,ugm-3
05-01-2002,13:00,53,R,ugm-3,36,R,ugm-3,117,R,ugm-3,0,R,ugm-3
05-01-2002,14:00,60,R,ugm-3,36,R,ugm-3,128,R,ugm-3,0,R,ugm-3
05-01-2002,15:00,66,R,ugm-3,36,R,ugm-3,138,R,ugm-3,0,R,ugm-3
05-01-2002,16:00,76,R,ugm-3,36,R,ugm-3,153,R,ugm-3,0,R,ugm-3
05-01-2002,17:00,59,R,ugm-3,44,R,ugm-3,134,R,ugm-3,0,R,ugm-3
05-01-2002,18:00,34,R,ugm-3,44,R,ugm-3,96,R,ugm-3,0,R,ugm-3
05-01-2002,19:00,34,R,ugm-3,48,R,ugm-3,99,R,ugm-3,2,R,ugm-3
05-01-2002,20:00,34,R,ugm-3,46,R,ugm-3,97,R,ugm-3,0,R,ugm-3
05-01-2002,21:00,30,R,ugm-3,44,R,ugm-3,90,R,ugm-3,2,R,ugm-3
05-01-2002,22:00,24,R,ugm-3,36,R,ugm-3,73,R,ugm-3,2,R,ugm-3
05-01-2002,23:00,14,R,ugm-3,32,R,ugm-3,53,R,ugm-3,2,R,ugm-3
05-01-2002,24:00,26,R,ugm-3,32,R,ugm-3,73,R,ugm-3,2,R,ugm-3
06-01-2002,01:00,33,R,ugm-3,32,R,ugm-3,82,R,ugm-3,0,R,ugm-3
06-01-2002,02:00,26,R,ugm-3,29,R,ugm-3,69,R,ugm-3,0,R,ugm-3
06-01-2002,03:00,14,R,ugm-3,25,R,ugm-3,46,R,ugm-3,8,R,ugm-3
06-01-2002,04:00,11,R,ugm-3,21,R,ugm-3,38,R,ugm-3,14,R,ugm-3
06-01-2002,05:00,5,R,ugm-3,17,R,ugm-3,25,R,ugm-3,14,R,ugm-3
06-01-2002,06:00,9,R,ugm-3,23,R,ugm-3,36,R,ugm-3,10,R,ugm-3
06-01-2002,07:00,13,R,ugm-3,32,R,ugm-3,52,R,ugm-3,4,R,ugm-3
06-01-2002,08:00,36,R,ugm-3,36,R,ugm-3,92,R,ugm-3,0,R,ugm-3
06-01-2002,09:00,31,R,ugm-3,38,R,ugm-3,86,R,ugm-3,0,R,ugm-3
06-01-2002,10:00,28,R,ugm-3,36,R,ugm-3,78,R,ugm-3,0,R,ugm-3
06-01-2002,11:00,40,R,ugm-3,38,R,ugm-3,99,R,ugm-3,2,R,ugm-3
06-01-2002,12:00,28,R,ugm-3,34,R,ugm-3,76,R,ugm-3,2,R,ugm-3
06-01-2002,13:00,39,R,ugm-3,36,R,ugm-3,96,R,ugm-3,0,R,ugm-3
06-01-2002,14:00,46,R,ugm-3,40,R,ugm-3,111,R,ugm-3,0,R,ugm-3
06-01-2002,15:00,28,R,ugm-3,40,R,ugm-3,82,R,ugm-3,2,R,ugm-3
06-01-2002,16:00,16,R,ugm-3,40,R,ugm-3,65,R,ugm-3,2,R,ugm-3
06-01-2002,17:00,35,R,ugm-3,46,R,ugm-3,99,R,ugm-3,0,R,ugm-3
06-01-2002,18:00,36,R,ugm-3,52,R,ugm-3,107,R,ugm-3,4,R,ugm-3
06-01-2002,19:00,19,R,ugm-3,46,R,ugm-3,74,R,ugm-3,8,R,ugm-3
06-01-2002,20:00,18,R,ugm-3,42,R,ugm-3,69,R,ugm-3,8,R,ugm-3
06-01-2002,21:00,15,R,ugm-3,42,R,ugm-3,65,R,ugm-3,2,R,ugm-3
06-01-2002,22:00,16,R,ugm-3,42,R,ugm-3,67,R,ugm-3,4,R,ugm-3
06-01-2002,23:00,25,R,ugm-3,46,R,ugm-3,84,R,ugm-3,2,R,ugm-3
06-01-2002,24:00,14,R,ugm-3,40,R,ugm-3,61,R,ugm-3,2,R,ugm-3
07-01-2002,01:00,9,R,ugm-3,38,R,ugm-3,52,R,ugm-3,2,R,ugm-3
07-01-2002,02:00,5,R,ugm-3,29,R,ugm-3,36,R,ugm-3,4,R,ugm-3
07-01-2002,03:00,9,R,ugm-3,21,R,ugm-3,34,R,ugm-3,18,R,ugm-3
07-01-2002,04:00,9,R,ugm-3,21,R,ugm-3,34,R,ugm-3,16,R,ugm-3
07-01-2002,05:00,4,R,ugm-3,21,R,ugm-3,27,R,ugm-3,14,R,ugm-3
07-01-2002,06:00,8,R,ugm-3,29,R,ugm-3,40,R,ugm-3,8,R,ugm-3
07-01-2002,07:00,29,R,ugm-3,46,R,ugm-3,90,R,ugm-3,0,R,ugm-3
07-01-2002,08:00,34,R,ugm-3,46,R,ugm-3,97,R,ugm-3,0,R,ugm-3
07-01-2002,09:00,60,R,ugm-3,50,R,ugm-3,141,R,ugm-3,0,R,ugm-3
07-01-2002,10:00,51,R,ugm-3,52,R,ugm-3,130,R,ugm-3,0,R,ugm-3
07-01-2002,11:00,44,R,ugm-3,50,R,ugm-3,117,R,ugm-3,0,R,ugm-3
07-01-2002,12:00,50,R,ugm-3,48,R,ugm-3,124,R,ugm-3,0,R,ugm-3
07-01-2002,13:00,40,R,ugm-3,50,R,ugm-3,111,R,ugm-3,0,R,ugm-3
07-01-2002,14:00,43,R,ugm-3,52,R,ugm-3,117,R,ugm-3,0,R,ugm-3
07-01-2002,15:00,41,R,ugm-3,52,R,ugm-3,115,R,ugm-3,0,R,ugm-3
07-01-2002,16:00,39,R,ugm-3,50,R,ugm-3,109,R,ugm-3,0,R,ugm-3
07-01-2002,17:00,23,R,ugm-3,40,R,ugm-3,74,R,ugm-3,0,R,ugm-3
07-01-2002,18:00,24,R,ugm-3,44,R,ugm-3,80,R,ugm-3,0,R,ugm-3
07-01-2002,19:00,35,R,ugm-3,44,R,ugm-3,97,R,ugm-3,0,R,ugm-3
07-01-2002,20:00,44,R,ugm-3,44,R,ugm-3,111,R,ugm-3,0,R,ugm-3
07-01-2002,21:00,43,R,ugm-3,50,R,ugm-3,115,R,ugm-3,0,R,ugm-3
07-01-2002,22:00,29,R,ugm-3,48,R,ugm-3,92,R,ugm-3,0,R,ugm-3
07-01-2002,23:00,25,R,ugm-3,48,R,ugm-3,86,R,ugm-3,0,R,ugm-3
07-01-2002,24:00,8,R,ugm-3,42,R,ugm-3,53,R,ugm-3,2,R,ugm-3
08-01-2002,01:00,6,R,ugm-3,40,R,ugm-3,50,R,ugm-3,4,R,ugm-3
08-01-2002,02:00,18,R,ugm-3,46,R,ugm-3,73,R,ugm-3,0,R,ugm-3
08-01-2002,03:00,51,R,ugm-3,53,R,ugm-3,132,R,ugm-3,0,R,ugm-3
08-01-2002,04:00,64,R,ugm-3,52,R,ugm-3,149,R,ugm-3,0,R,ugm-3
08-01-2002,05:00,44,R,ugm-3,48,R,ugm-3,115,R,ugm-3,0,R,ugm-3
08-01-2002,06:00,35,R,ugm-3,46,R,ugm-3,99,R,ugm-3,0,R,ugm-3
08-01-2002,07:00,45,R,ugm-3,48,R,ugm-3,117,R,ugm-3,0,R,ugm-3
08-01-2002,08:00,51,R,ugm-3,50,R,ugm-3,128,R,ugm-3,0,R,ugm-3
08-01-2002,09:00,64,R,ugm-3,53,R,ugm-3,151,R,ugm-3,0,R,ugm-3
08-01-2002,10:00,51,R,ugm-3,55,R,ugm-3,134,R,ugm-3,0,R,ugm-3
08-01-2002,11:00,15,R,ugm-3,40,R,ugm-3,63,R,ugm-3,14,R,ugm-3
08-01-2002,12:00,18,R,ugm-3,40,R,ugm-3,67,R,ugm-3,12,R,ugm-3
08-01-2002,13:00,15,R,ugm-3,38,R,ugm-3,61,R,ugm-3,14,R,ugm-3
08-01-2002,14:00,19,R,ugm-3,40,R,ugm-3,69,R,ugm-3,10,R,ugm-3
08-01-2002,15:00,20,R,ugm-3,44,R,ugm-3,74,R,ugm-3,8,R,ugm-3
08-01-2002,16:00,26,R,ugm-3,50,R,ugm-3,90,R,ugm-3,2,R,ugm-3
08-01-2002,17:00,28,R,ugm-3,53,R,ugm-3,96,R,ugm-3,2,R,ugm-3
08-01-2002,18:00,29,R,ugm-3,53,R,ugm-3,97,R,ugm-3,2,R,ugm-3
08-01-2002,19:00,25,R,ugm-3,53,R,ugm-3,92,R,ugm-3,2,R,ugm-3
08-01-2002,20:00,31,R,ugm-3,53,R,ugm-3,101,R,ugm-3,2,R,ugm-3
08-01-2002,21:00,31,R,ugm-3,52,R,ugm-3,99,R,ugm-3,0,R,ugm-3
08-01-2002,22:00,28,R,ugm-3,50,R,ugm-3,92,R,ugm-3,0,R,ugm-3
08-01-2002,23:00,28,R,ugm-3,48,R,ugm-3,90,R,ugm-3,0,R,ugm-3
08-01-2002,24:00,41,R,ugm-3,44,R,ugm-3,107,R,ugm-3,0,R,ugm-3
09-01-2002,01:00,14,R,ugm-3,44,R,ugm-3,65,R,ugm-3,0,R,ugm-3
09-01-2002,02:00,5,R,ugm-3,36,R,ugm-3,44,R,ugm-3,4,R,ugm-3
09-01-2002,03:00,21,R,ugm-3,34,R,ugm-3,67,R,ugm-3,0,R,ugm-3
09-01-2002,04:00,31,R,ugm-3,31,R,ugm-3,78,R,ugm-3,0,R,ugm-3
09-01-2002,05:00,36,R,ugm-3,31,R,ugm-3,86,R,ugm-3,0,R,ugm-3
09-01-2002,06:00,98,R,ugm-3,31,R,ugm-3,180,R,ugm-3,0,R,ugm-3
09-01-2002,07:00,198,R,ugm-3,36,R,ugm-3,338,R,ugm-3,0,R,ugm-3
09-01-2002,08:00,256,R,ugm-3,50,R,ugm-3,441,R,ugm-3,0,R,ugm-3
09-01-2002,09:00,71,R,ugm-3,50,R,ugm-3,159,R,ugm-3,0,R,ugm-3
09-01-2002,10:00,91,R,ugm-3,48,R,ugm-3,187,R,ugm-3,0,R,ugm-3
09-01-2002,11:00,69,R,ugm-3,46,R,ugm-3,151,R,ugm-3,0,R,ugm-3
09-01-2002,12:00,50,R,ugm-3,46,R,ugm-3,122,R,ugm-3,4,R,ugm-3
09-01-2002,13:00,29,R,ugm-3,42,R,ugm-3,86,R,ugm-3,10,R,ugm-3
09-01-2002,14:00,31,R,ugm-3,44,R,ugm-3,92,R,ugm-3,8,R,ugm-3
09-01-2002,15:00,25,R,ugm-3,42,R,ugm-3,80,R,ugm-3,6,R,ugm-3
09-01-2002,16:00,54,R,ugm-3,50,R,ugm-3,132,R,ugm-3,0,R,ugm-3
09-01-2002,17:00,56,R,ugm-3,52,R,ugm-3,138,R,ugm-3,0,R,ugm-3
09-01-2002,18:00,64,R,ugm-3,50,R,ugm-3,147,R,ugm-3,0,R,ugm-3
09-01-2002,19:00,44,R,ugm-3,53,R,ugm-3,120,R,ugm-3,0,R,ugm-3
09-01-2002,20:00,63,R,ugm-3,55,R,ugm-3,151,R,ugm-3,0,R,ugm-3
09-01-2002,21:00,39,R,ugm-3,53,R,ugm-3,113,R,ugm-3,0,R,ugm-3
09-01-2002,22:00,28,R,ugm-3,55,R,ugm-3,97,R,ugm-3,0,R,ugm-3
09-01-2002,23:00,30,R,ugm-3,55,R,ugm-3,101,R,ugm-3,0,R,ugm-3
09-01-2002,24:00,54,R,ugm-3,53,R,ugm-3,136,R,ugm-3,-2,R,ugm-3
10-01-2002,01:00,39,R,ugm-3,48,R,ugm-3,107,R,ugm-3,0,R,ugm-3
10-01-2002,02:00,4,R,ugm-3,34,R,ugm-3,40,R,ugm-3,4,R,ugm-3
10-01-2002,03:00,8,R,ugm-3,34,R,ugm-3,46,R,ugm-3,4,R,ugm-3
10-01-2002,04:00,4,R,ugm-3,32,R,ugm-3,38,R,ugm-3,2,R,ugm-3
10-01-2002,05:00,6,R,ugm-3,29,R,ugm-3,38,R,ugm-3,6,R,ugm-3
10-01-2002,06:00,11,R,ugm-3,27,R,ugm-3,44,R,ugm-3,8,R,ugm-3
10-01-2002,07:00,24,R,ugm-3,36,R,ugm-3,73,R,ugm-3,2,R,ugm-3
10-01-2002,08:00,74,R,ugm-3,40,R,ugm-3,153,R,ugm-3,0,R,ugm-3
10-01-2002,09:00,93,R,ugm-3,42,R,ugm-3,183,R,ugm-3,0,R,ugm-3
10-01-2002,10:00,58,R,ugm-3,36,R,ugm-3,124,R,ugm-3,0,R,ugm-3
10-01-2002,11:00,36,R,ugm-3,36,R,ugm-3,92,R,ugm-3,4,R,ugm-3
10-01-2002,12:00,36,R,ugm-3,38,R,ugm-3,94,R,ugm-3,8,R,ugm-3
10-01-2002,13:00,23,R,ugm-3,36,R,ugm-3,71,R,ugm-3,14,R,ugm-3
10-01-2002,14:00,16,R,ugm-3,32,R,ugm-3,57,R,ugm-3,18,R,ugm-3
10-01-2002,15:00,21,R,ugm-3,42,R,ugm-3,74,R,ugm-3,12,R,ugm-3
10-01-2002,16:00,19,R,ugm-3,40,R,ugm-3,69,R,ugm-3,6,R,ugm-3
10-01-2002,17:00,29,R,ugm-3,44,R,ugm-3,88,R,ugm-3,6,R,ugm-3
10-01-2002,18:00,26,R,ugm-3,48,R,ugm-3,88,R,ugm-3,4,R,ugm-3
10-01-2002,19:00,20,R,ugm-3,42,R,ugm-3,73,R,ugm-3,10,R,ugm-3
10-01-2002,20:00,24,R,ugm-3,46,R,ugm-3,82,R,ugm-3,2,R,ugm-3
10-01-2002,21:00,23,R,ugm-3,44,R,ugm-3,78,R,ugm-3,8,R,ugm-3
10-01-2002,22:00,16,R,ugm-3,46,R,ugm-3,71,R,ugm-3,6,R,ugm-3
10-01-2002,23:00,16,R,ugm-3,46,R,ugm-3,71,R,ugm-3,0,R,ugm-3
10-01-2002,24:00,34,R,ugm-3,40,R,ugm-3,92,R,ugm-3,0,R,ugm-3
11-01-2002,01:00,15,R,ugm-3,38,R,ugm-3,61,R,ugm-3,2,R,ugm-3
11-01-2002,02:00,15,R,ugm-3,34,R,ugm-3,57,R,ugm-3,4,R,ugm-3
11-01-2002,03:00,11,R,ugm-3,40,R,ugm-3,57,R,ugm-3,8,R,ugm-3
11-01-2002,04:00,4,R,ugm-3,25,R,ugm-3,31,R,ugm-3,18,R,ugm-3
11-01-2002,05:00,15,R,ugm-3,36,R,ugm-3,59,R,ugm-3,6,R,ugm-3
11-01-2002,06:00,16,R,ugm-3,36,R,ugm-3,61,R,ugm-3,4,R,ugm-3
11-01-2002,07:00,21,R,ugm-3,36,R,ugm-3,69,R,ugm-3,2,R,ugm-3
11-01-2002,08:00,29,R,ugm-3,38,R,ugm-3,82,R,ugm-3,0,R,ugm-3
11-01-2002,09:00,49,R,ugm-3,42,R,ugm-3,117,R,ugm-3,0,R,ugm-3
11-01-2002,10:00,60,R,ugm-3,42,R,ugm-3,134,R,ugm-3,0,R,ugm-3
11-01-2002,11:00,44,R,ugm-3,38,R,ugm-3,105,R,ugm-3,4,R,ugm-3
11-01-2002,12:00,40,R,ugm-3,36,R,ugm-3,97,R,ugm-3,4,R,ugm-3
11-01-2002,13:00,46,R,ugm-3,38,R,ugm-3,109,R,ugm-3,8,R,ugm-3
11-01-2002,14:00,,,,,,,,,,,,
11-01-2002,15:00,,,,,,,,,,,,
11-01-2002,16:00,46,R,ugm-3,46,R,ugm-3,117,R,ugm-3,2,R,ugm-3
11-01-2002,17:00,119,R,ugm-3,46,R,ugm-3,227,R,ugm-3,0,R,ugm-3
11-01-2002,18:00,74,R,ugm-3,42,R,ugm-3,155,R,ugm-3,0,R,ugm-3
11-01-2002,19:00,66,R,ugm-3,40,R,ugm-3,141,R,ugm-3,0,R,ugm-3
11-01-2002,20:00,78,R,ugm-3,48,R,ugm-3,166,R,ugm-3,0,R,ugm-3
11-01-2002,21:00,46,R,ugm-3,50,R,ugm-3,120,R,ugm-3,0,R,ugm-3
11-01-2002,22:00,33,R,ugm-3,50,R,ugm-3,99,R,ugm-3,2,R,ugm-3
11-01-2002,23:00,14,R,ugm-3,36,R,ugm-3,57,R,ugm-3,18,R,ugm-3
11-01-2002,24:00,10,R,ugm-3,34,R,ugm-3,50,R,ugm-3,16,R,ugm-3
12-01-2002,01:00,5,R,ugm-3,25,R,ugm-3,32,R,ugm-3,20,R,ugm-3
12-01-2002,02:00,4,R,ugm-3,21,R,ugm-3,27,R,ugm-3,18,R,ugm-3
12-01-2002,03:00,8,R,ugm-3,23,R,ugm-3,34,R,ugm-3,16,R,ugm-3
12-01-2002,04:00,6,R,ugm-3,17,R,ugm-3,27,R,ugm-3,18,R,ugm-3
12-01-2002,05:00,3,R,ugm-3,15,R,ugm-3,19,R,ugm-3,14,R,ugm-3
12-01-2002,06:00,3,R,ugm-3,23,R,ugm-3,27,R,ugm-3,6,R,ugm-3
12-01-2002,07:00,26,R,ugm-3,31,R,ugm-3,71,R,ugm-3,0,R,ugm-3
12-01-2002,08:00,85,R,ugm-3,32,R,ugm-3,162,R,ugm-3,0,R,ugm-3
12-01-2002,09:00,43,R,ugm-3,38,R,ugm-3,103,R,ugm-3,0,R,ugm-3
12-01-2002,10:00,35,R,ugm-3,36,R,ugm-3,90,R,ugm-3,4,R,ugm-3
12-01-2002,11:00,25,R,ugm-3,34,R,ugm-3,73,R,ugm-3,12,R,ugm-3
12-01-2002,12:00,19,R,ugm-3,31,R,ugm-3,59,R,ugm-3,8,R,ugm-3
12-01-2002,13:00,19,R,ugm-3,32,R,ugm-3,61,R,ugm-3,6,R,ugm-3
12-01-2002,14:00,20,R,ugm-3,34,R,ugm-3,65,R,ugm-3,14,R,ugm-3
12-01-2002,15:00,10,R,ugm-3,23,R,ugm-3,38,R,ugm-3,22,R,ugm-3
12-01-2002,16:00,15,R,ugm-3,31,R,ugm-3,53,R,ugm-3,14,R,ugm-3
12-01-2002,17:00,13,R,ugm-3,32,R,ugm-3,52,R,ugm-3,16,R,ugm-3
12-01-2002,18:00,10,R,ugm-3,29,R,ugm-3,44,R,ugm-3,12,R,ugm-3
12-01-2002,19:00,10,R,ugm-3,25,R,ugm-3,40,R,ugm-3,18,R,ugm-3
12-01-2002,20:00,5,R,ugm-3,19,R,ugm-3,27,R,ugm-3,24,R,ugm-3
12-01-2002,21:00,6,R,ugm-3,15,R,ugm-3,25,R,ugm-3,30,R,ugm-3
12-01-2002,22:00,5,R,ugm-3,11,R,ugm-3,19,R,ugm-3,32,R,ugm-3
12-01-2002,23:00,3,R,ugm-3,13,R,ugm-3,17,R,ugm-3,34,R,ugm-3
12-01-2002,24:00,5,R,ugm-3,11,R,ugm-3,19,R,ugm-3,32,R,ugm-3
13-01-2002,01:00,3,R,ugm-3,15,R,ugm-3,19,R,ugm-3,30,R,ugm-3
13-01-2002,02:00,3,R,ugm-3,11,R,ugm-3,15,R,ugm-3,32,R,ugm-3
13-01-2002,03:00,3,R,ugm-3,15,R,ugm-3,19,R,ugm-3,28,R,ugm-3
13-01-2002,04:00,1,R,ugm-3,15,R,ugm-3,17,R,ugm-3,26,R,ugm-3
13-01-2002,05:00,3,R,ugm-3,11,R,ugm-3,15,R,ugm-3,32,R,ugm-3
13-01-2002,06:00,1,R,ugm-3,10,R,ugm-3,11,R,ugm-3,36,R,ugm-3
13-01-2002,07:00,4,R,ugm-3,13,R,ugm-3,19,R,ugm-3,32,R,ugm-3
13-01-2002,08:00,5,R,ugm-3,19,R,ugm-3,27,R,ugm-3,26,R,ugm-3
13-01-2002,09:00,5,R,ugm-3,25,R,ugm-3,32,R,ugm-3,16,R,ugm-3
13-01-2002,10:00,10,R,ugm-3,27,R,ugm-3,42,R,ugm-3,14,R,ugm-3
13-01-2002,11:00,18,R,ugm-3,29,R,ugm-3,55,R,ugm-3,12,R,ugm-3
13-01-2002,12:00,19,R,ugm-3,31,R,ugm-3,59,R,ugm-3,10,R,ugm-3
13-01-2002,13:00,15,R,ugm-3,31,R,ugm-3,53,R,ugm-3,16,R,ugm-3
13-01-2002,14:00,11,R,ugm-3,27,R,ugm-3,44,R,ugm-3,24,R,ugm-3
13-01-2002,15:00,10,R,ugm-3,25,R,ugm-3,40,R,ugm-3,24,R,ugm-3
13-01-2002,16:00,13,R,ugm-3,31,R,ugm-3,50,R,ugm-3,22,R,ugm-3
13-01-2002,17:00,15,R,ugm-3,38,R,ugm-3,61,R,ugm-3,8,R,ugm-3
13-01-2002,18:00,15,R,ugm-3,40,R,ugm-3,63,R,ugm-3,8,R,ugm-3
13-01-2002,19:00,14,R,ugm-3,38,R,ugm-3,59,R,ugm-3,8,R,ugm-3
13-01-2002,20:00,8,R,ugm-3,29,R,ugm-3,40,R,ugm-3,16,R,ugm-3
13-01-2002,21:00,9,R,ugm-3,34,R,ugm-3,48,R,ugm-3,10,R,ugm-3
13-01-2002,22:00,6,R,ugm-3,27,R,ugm-3,36,R,ugm-3,18,R,ugm-3
13-01-2002,23:00,5,R,ugm-3,23,R,ugm-3,31,R,ugm-3,20,R,ugm-3
13-01-2002,24:00,4,R,ugm-3,19,R,ugm-3,25,R,ugm-3,22,R,ugm-3
14-01-2002,01:00,3,R,ugm-3,19,R,ugm-3,23,R,ugm-3,18,R,ugm-3
14-01-2002,02:00,1,R,ugm-3,11,R,ugm-3,13,R,ugm-3,26,R,ugm-3
14-01-2002,03:00,3,R,ugm-3,10,R,ugm-3,13,R,ugm-3,26,R,ugm-3
14-01-2002,04:00,1,R,ugm-3,11,R,ugm-3,13,R,ugm-3,22,R,ugm-3
14-01-2002,05:00,3,R,ugm-3,13,R,ugm-3,17,R,ugm-3,22,R,ugm-3
14-01-2002,06:00,5,R,ugm-3,19,R,ugm-3,27,R,ugm-3,14,R,ugm-3
14-01-2002,07:00,13,R,ugm-3,29,R,ugm-3,48,R,ugm-3,4,R,ugm-3
14-01-2002,08:00,45,R,ugm-3,36,R,ugm-3,105,R,ugm-3,0,R,ugm-3
14-01-2002,09:00,54,R,ugm-3,42,R,ugm-3,124,R,ugm-3,0,R,ugm-3
14-01-2002,10:00,24,R,ugm-3,34,R,ugm-3,71,R,ugm-3,10,R,ugm-3
14-01-2002,11:00,,,,,,,,,,,,
14-01-2002,12:00,19,R,ugm-3,34,R,ugm-3,63,R,ugm-3,26,R,ugm-3
14-01-2002,13:00,15,R,ugm-3,31,R,ugm-3,53,R,ugm-3,28,R,ugm-3
14-01-2002,14:00,11,R,ugm-3,25,R,ugm-3,42,R,ugm-3,32,R,ugm-3
14-01-2002,15:00,19,R,ugm-3,32,R,ugm-3,61,R,ugm-3,28,R,ugm-3
14-01-2002,16:00,15,R,ugm-3,31,R,ugm-3,53,R,ugm-3,28,R,ugm-3
14-01-2002,17:00,14,R,ugm-3,32,R,ugm-3,53,R,ugm-3,26,R,ugm-3
14-01-2002,18:00,13,R,ugm-3,31,R,ugm-3,50,R,ugm-3,26,R,ugm-3
14-01-2002,19:00,13,R,ugm-3,29,R,ugm-3,48,R,ugm-3,24,R,ugm-3
14-01-2002,20:00,14,R,ugm-3,23,R,ugm-3,44,R,ugm-3,28,R,ugm-3
14-01-2002,21:00,6,R,ugm-3,19,R,ugm-3,29,R,ugm-3,30,R,ugm-3
14-01-2002,22:00,10,R,ugm-3,19,R,ugm-3,34,R,ugm-3,28,R,ugm-3
14-01-2002,23:00,6,R,ugm-3,15,R,ugm-3,25,R,ugm-3,28,R,ugm-3
14-01-2002,24:00,3,R,ugm-3,21,R,ugm-3,25,R,ugm-3,22,R,ugm-3
15-01-2002,01:00,1,R,ugm-3,15,R,ugm-3,17,R,ugm-3,38,R,ugm-3
15-01-2002,02:00,5,R,ugm-3,15,R,ugm-3,23,R,ugm-3,32,R,ugm-3
15-01-2002,03:00,5,R,ugm-3,10,R,ugm-3,17,R,ugm-3,48,R,ugm-3
15-01-2002,04:00,1,R,ugm-3,4,R,ugm-3,6,R,ugm-3,54,R,ugm-3
15-01-2002,05:00,1,R,ugm-3,8,R,ugm-3,10,R,ugm-3,48,R,ugm-3
15-01-2002,06:00,11,R,ugm-3,29,R,ugm-3,46,R,ugm-3,36,R,ugm-3
15-01-2002,07:00,19,R,ugm-3,44,R,ugm-3,73,R,ugm-3,20,R,ugm-3
15-01-2002,08:00,20,R,ugm-3,46,R,ugm-3,76,R,ugm-3,12,R,ugm-3
15-01-2002,09:00,36,R,ugm-3,53,R,ugm-3,109,R,ugm-3,2,R,ugm-3
15-01-2002,10:00,35,R,ugm-3,52,R,ugm-3,105,R,ugm-3,4,R,ugm-3
15-01-2002,11:00,31,R,ugm-3,52,R,ugm-3,99,R,ugm-3,8,R,ugm-3
15-01-2002,12:00,29,R,ugm-3,48,R,ugm-3,92,R,ugm-3,14,R,ugm-3
15-01-2002,13:00,19,R,ugm-3,38,R,ugm-3,67,R,ugm-3,28,R,ugm-3
15-01-2002,14:00,13,R,ugm-3,31,R,ugm-3,50,R,ugm-3,38,R,ugm-3
15-01-2002,15:00,10,R,ugm-3,38,R,ugm-3,53,R,ugm-3,32,R,ugm-3
15-01-2002,16:00,10,R,ugm-3,44,R,ugm-3,59,R,ugm-3,26,R,ugm-3
15-01-2002,17:00,8,R,ugm-3,42,R,ugm-3,53,R,ugm-3,30,R,ugm-3
15-01-2002,18:00,9,R,ugm-3,44,R,ugm-3,57,R,ugm-3,24,R,ugm-3
15-01-2002,19:00,36,R,ugm-3,71,R,ugm-3,126,R,ugm-3,2,R,ugm-3
15-01-2002,20:00,91,R,ugm-3,73,R,ugm-3,212,R,ugm-3,0,R,ugm-3
15-01-2002,21:00,95,R,ugm-3,69,R,ugm-3,214,R,ugm-3,0,R,ugm-3
15-01-2002,22:00,65,R,ugm-3,63,R,ugm-3,162,R,ugm-3,0,R,ugm-3
15-01-2002,23:00,41,R,ugm-3,61,R,ugm-3,124,R,ugm-3,0,R,ugm-3
15-01-2002,24:00,29,R,ugm-3,57,R,ugm-3,101,R,ugm-3,0,R,ugm-3
16-01-2002,01:00,6,R,ugm-3,42,R,ugm-3,52,R,ugm-3,8,R,ugm-3
16-01-2002,02:00,1,R,ugm-3,31,R,ugm-3,32,R,ugm-3,18,R,ugm-3
16-01-2002,03:00,4,R,ugm-3,29,R,ugm-3,34,R,ugm-3,4,R,ugm-3
16-01-2002,04:00,5,R,ugm-3,29,R,ugm-3,36,R,ugm-3,8,R,ugm-3
16-01-2002,05:00,4,R,ugm-3,23,R,ugm-3,29,R,ugm-3,16,R,ugm-3
16-01-2002,06:00,6,R,ugm-3,27,R,ugm-3,36,R,ugm-3,28,R,ugm-3
16-01-2002,07:00,19,R,ugm-3,42,R,ugm-3,71,R,ugm-3,12,R,ugm-3
16-01-2002,08:00,69,R,ugm-3,55,R,ugm-3,160,R,ugm-3,2,R,ugm-3
16-01-2002,09:00,159,R,ugm-3,61,R,ugm-3,304,R,ugm-3,0,R,ugm-3
16-01-2002,10:00,150,R,ugm-3,57,R,ugm-3,287,R,ugm-3,2,R,ugm-3
16-01-2002,11:00,40,R,ugm-3,53,R,ugm-3,115,R,ugm-3,10,R,ugm-3
16-01-2002,12:00,36,R,ugm-3,52,R,ugm-3,107,R,ugm-3,10,R,ugm-3
16-01-2002,13:00,31,R,ugm-3,50,R,ugm-3,97,R,ugm-3,14,R,ugm-3
16-01-2002,14:00,21,R,ugm-3,44,R,ugm-3,76,R,ugm-3,20,R,ugm-3
16-01-2002,15:00,20,R,ugm-3,44,R,ugm-3,74,R,ugm-3,22,R,ugm-3
16-01-2002,16:00,23,R,ugm-3,48,R,ugm-3,82,R,ugm-3,22,R,ugm-3
16-01-2002,17:00,20,R,ugm-3,55,R,ugm-3,86,R,ugm-3,10,R,ugm-3
16-01-2002,18:00,26,R,ugm-3,52,R,ugm-3,92,R,ugm-3,8,R,ugm-3
16-01-2002,19:00,24,R,ugm-3,50,R,ugm-3,86,R,ugm-3,10,R,ugm-3
16-01-2002,20:00,21,R,ugm-3,46,R,ugm-3,78,R,ugm-3,16,R,ugm-3
16-01-2002,21:00,16,R,ugm-3,38,R,ugm-3,63,R,ugm-3,26,R,ugm-3
16-01-2002,22:00,8,R,ugm-3,31,R,ugm-3,42,R,ugm-3,28,R,ugm-3
16-01-2002,23:00,8,R,ugm-3,25,R,ugm-3,36,R,ugm-3,38,R,ugm-3
16-01-2002,24:00,4,R,ugm-3,21,R,ugm-3,27,R,ugm-3,42,R,ugm-3
17-01-2002,01:00,8,R,ugm-3,17,R,ugm-3,29,R,ugm-3,46,R,ugm-3
17-01-2002,02:00,6,R,ugm-3,8,R,ugm-3,17,R,ugm-3,60,R,ugm-3
17-01-2002,03:00,1,R,ugm-3,6,R,ugm-3,8,R,ugm-3,54,R,ugm-3
17-01-2002,04:00,1,R,ugm-3,4,R,ugm-3,6,R,ugm-3,54,R,ugm-3
17-01-2002,05:00,11,R,ugm-3,11,R,ugm-3,29,R,ugm-3,54,R,ugm-3
17-01-2002,06:00,5,R,ugm-3,13,R,ugm-3,21,R,ugm-3,48,R,ugm-3
17-01-2002,07:00,9,R,ugm-3,25,R,ugm-3,38,R,ugm-3,40,R,ugm-3
17-01-2002,08:00,18,R,ugm-3,38,R,ugm-3,65,R,ugm-3,30,R,ugm-3